Weather History for Morris, MN

Change the Weather History Date:

Friday, August 2, 2013

  Actual Average Record
Temperature  
Mean Temperature 63 °F -  
Max Temperature 75 °F 77 °F 89 °F (1997)
Min Temperature 51 °F 57 °F 48 °F (2002)
Degree Days  
Heating Degree Days 2    
Growing Degree Days 13 (Base 50)    
Moisture  
Dew Point 54 °F    
Average Humidity 72    
Maximum Humidity 100    
Minimum Humidity 38    
Precipitation  
Precipitation 0.00 in - - ()
Sea Level Pressure  
Sea Level Pressure 29.98 in    
Wind  
Wind Speed 5 mph (NNW)    
Max Wind Speed 10 mph    
Max Gust Speed -    
Visibility 10 miles    
Events      
Averages and records for this station are not official NWS values.
T = Trace of Precipitation, MM = Missing Value Source: NWS Daily Summary

Daily Weather History Graph

Daily Weather History Graph

Search for Another Location

Airport:

Trip Planner

Search our weather history database for the weather conditions in past years. The results will help you decide how hot, cold, wet, or windy it might be!

Date:

Astronomy

Aug. 02, 2013 Rise Set
Actual Time 6:09 AM CDT 8:50 PM CDT
Civil Twilight 5:35 AM CDT 9:24 PM CDT
Nautical Twilight 4:51 AM CDT 10:07 PM CDT
Astronomical Twilight 4:02 AM CDT 10:56 PM CDT
Moon 2:28 AM CDT (8/2) 5:51 PM CDT (8/2)
Length of Visible Light 15h 49m
Length of Day
14h 41m
Waning Crescent, 15% of the Moon is Illuminated
Aug 2
Waning Crescent
Aug 6
New
Aug 14
First Quarter
Aug 20
Full
Aug 28
Last Quarter

Hourly Weather History & Observations

Time (CDT) Temp. Dew Point Humidity Pressure Visibility Wind Dir Wind Speed Gust Speed Precip Events Conditions
12:09 AM 59.0 °F 55.4 °F 88% 29.92 in 10.0 mi NNW 4.6 mph - N/A   Clear
12:29 AM 59.0 °F 55.4 °F 88% 29.92 in 10.0 mi NNW 5.8 mph - N/A   Clear
12:49 AM 57.2 °F 53.6 °F 88% 29.91 in 10.0 mi NW 4.6 mph - N/A   Clear
1:09 AM 57.2 °F 55.4 °F 94% 29.91 in 10.0 mi NW 3.5 mph - N/A   Clear
1:29 AM 57.2 °F 55.4 °F 94% 29.91 in 10.0 mi NW 3.5 mph - N/A   Clear
1:49 AM 57.2 °F 53.6 °F 88% 29.91 in 10.0 mi WNW 3.5 mph - N/A   Clear
2:09 AM 57.2 °F 53.6 °F 88% 29.91 in 10.0 mi NW 4.6 mph - N/A   Clear
2:29 AM 55.4 °F 53.6 °F 94% 29.92 in 10.0 mi WNW 4.6 mph - N/A   Clear
2:49 AM 55.4 °F 53.6 °F 94% 29.93 in 10.0 mi West 4.6 mph - N/A   Clear
3:09 AM 55.4 °F 51.8 °F 88% 29.92 in 10.0 mi West 4.6 mph - N/A   Clear
3:29 AM 55.4 °F 51.8 °F 88% 29.92 in 10.0 mi NW 3.5 mph - N/A   Clear
3:49 AM 53.6 °F 51.8 °F 94% 29.92 in 10.0 mi NW 4.6 mph - N/A   Clear
4:09 AM 53.6 °F 51.8 °F 94% 29.92 in 10.0 mi West 3.5 mph - N/A   Clear
4:29 AM 53.6 °F 51.8 °F 94% 29.93 in 10.0 mi WNW 3.5 mph - N/A   Clear
4:49 AM 51.8 °F 50.0 °F 94% 29.94 in 10.0 mi West 5.8 mph - N/A   Clear
5:09 AM 51.8 °F 48.2 °F 88% 29.94 in 10.0 mi West 5.8 mph - N/A   Clear
5:29 AM 51.8 °F 50.0 °F 94% 29.94 in 10.0 mi WNW 8.1 mph - N/A   Clear
5:49 AM 51.8 °F 51.8 °F 100% 29.94 in 10.0 mi NNW 6.9 mph - N/A   Clear
6:09 AM 51.8 °F 48.2 °F 88% 29.95 in 10.0 mi WSW 4.6 mph - N/A   Clear
6:29 AM 51.8 °F 48.2 °F 88% 29.94 in 10.0 mi WNW 3.5 mph - N/A   Clear
6:49 AM 53.6 °F 51.8 °F 94% 29.94 in 10.0 mi NW 3.5 mph - N/A   Clear
7:09 AM 55.4 °F 53.6 °F 94% 29.95 in 10.0 mi West 3.5 mph - N/A   Clear
7:29 AM 57.2 °F 55.4 °F 94% 29.95 in 10.0 mi West 4.6 mph - N/A   Clear
7:49 AM 60.8 °F 55.4 °F 82% 29.96 in 10.0 mi WNW 5.8 mph - N/A   Clear
8:09 AM 60.8 °F 55.4 °F 82% 29.96 in 10.0 mi NNW 6.9 mph - N/A   Clear
8:29 AM 62.6 °F 55.4 °F 77% 29.97 in 10.0 mi NW 4.6 mph - N/A   Clear
8:49 AM 62.6 °F 55.4 °F 77% 29.97 in 10.0 mi NW 6.9 mph - N/A   Clear
9:09 AM 64.4 °F 57.2 °F 77% 29.97 in 10.0 mi NNW 3.5 mph - N/A   Clear
9:29 AM 64.4 °F 59.0 °F 83% 29.97 in 10.0 mi North 4.6 mph - N/A   Clear
9:49 AM 64.4 °F 59.0 °F 83% 29.96 in 10.0 mi North 4.6 mph - N/A   Clear
10:09 AM 66.2 °F 59.0 °F 78% 29.97 in 10.0 mi North 6.9 mph - N/A   Clear
10:29 AM 66.2 °F 57.2 °F 73% 29.97 in 10.0 mi North 4.6 mph - N/A   Clear
10:49 AM 69.8 °F 57.2 °F 64% 29.98 in 10.0 mi North 6.9 mph - N/A   Clear
11:09 AM 71.6 °F 57.2 °F 60% 29.98 in 10.0 mi North 9.2 mph - N/A   Clear
11:29 AM 71.6 °F 55.4 °F 57% 29.98 in 10.0 mi NE 6.9 mph - N/A   Clear
11:49 AM 71.6 °F 57.2 °F 60% 29.99 in 10.0 mi North 5.8 mph - N/A   Clear
12:09 PM 71.6 °F 55.4 °F 57% 29.99 in 10.0 mi North 5.8 mph - N/A   Clear
12:29 PM 71.6 °F 55.4 °F 57% 30.00 in 10.0 mi North 6.9 mph - N/A   Clear
12:49 PM 71.6 °F 55.4 °F 57% 30.00 in 10.0 mi North 5.8 mph - N/A   Clear
1:09 PM 73.4 °F 57.2 °F 57% 30.00 in 10.0 mi North 5.8 mph - N/A   Clear
1:29 PM 73.4 °F 57.2 °F 57% 30.00 in 10.0 mi North 4.6 mph - N/A   Clear
1:49 PM 73.4 °F 55.4 °F 53% 30.01 in 10.0 mi Calm Calm - N/A   Scattered Clouds
2:09 PM 73.4 °F 55.4 °F 53% 30.00 in 10.0 mi North 8.1 mph - N/A   Scattered Clouds
2:29 PM 71.6 °F 53.6 °F 53% 30.00 in 10.0 mi NNW 6.9 mph - N/A   Clear
2:49 PM 73.4 °F 53.6 °F 50% 30.01 in 10.0 mi North 5.8 mph - N/A   Clear
3:09 PM 73.4 °F 53.6 °F 50% 30.00 in 10.0 mi North 6.9 mph - N/A   Clear
3:29 PM 73.4 °F 53.6 °F 50% 29.99 in 10.0 mi NNW 3.5 mph - N/A   Clear
3:49 PM 73.4 °F 53.6 °F 50% 29.99 in 10.0 mi North 6.9 mph - N/A   Clear
4:09 PM 73.4 °F 53.6 °F 50% 29.99 in 10.0 mi NNW 5.8 mph - N/A   Scattered Clouds
4:29 PM 73.4 °F 53.6 °F 50% 30.00 in 10.0 mi North 6.9 mph - N/A   Scattered Clouds
4:49 PM 73.4 °F 51.8 °F 47% 30.00 in 10.0 mi NNW 6.9 mph - N/A   Scattered Clouds
5:09 PM 75.2 °F 50.0 °F 41% 30.00 in 10.0 mi North 8.1 mph - N/A   Clear
5:29 PM 75.2 °F 50.0 °F 41% 30.01 in 10.0 mi North 9.2 mph - N/A   Clear
5:49 PM 75.2 °F 48.2 °F 38% 30.01 in 10.0 mi North 5.8 mph - N/A   Clear
6:09 PM 73.4 °F 48.2 °F 41% 30.01 in 10.0 mi North 10.4 mph - N/A   Scattered Clouds
6:29 PM 73.4 °F 50.0 °F 44% 30.01 in 10.0 mi NNW 6.9 mph - N/A   Clear
6:49 PM 73.4 °F 51.8 °F 47% 30.01 in 10.0 mi North 9.2 mph - N/A   Clear
7:09 PM 73.4 °F 51.8 °F 47% 30.02 in 10.0 mi North 5.8 mph - N/A   Clear
7:29 PM 71.6 °F 53.6 °F 53% 30.02 in 10.0 mi North 5.8 mph - N/A   Clear
7:49 PM 69.8 °F 55.4 °F 60% 30.03 in 10.0 mi North 4.6 mph - N/A   Clear
8:09 PM 66.2 °F 53.6 °F 64% 30.03 in 10.0 mi North 5.8 mph - N/A   Clear
8:29 PM 64.4 °F 53.6 °F 68% 30.03 in 10.0 mi North 5.8 mph - N/A   Clear
8:49 PM 62.6 °F 55.4 °F 77% 30.04 in 10.0 mi North 4.6 mph - N/A   Clear
9:09 PM 62.6 °F 53.6 °F 72% 30.05 in 10.0 mi North 5.8 mph - N/A   Clear
9:29 PM 62.6 °F 53.6 °F 72% 30.06 in 10.0 mi North 4.6 mph - N/A   Clear
9:49 PM 60.8 °F 53.6 °F 77% 30.07 in 10.0 mi NNW 4.6 mph - N/A   Clear
10:09 PM 57.2 °F 53.6 °F 88% 30.07 in 10.0 mi NNW 4.6 mph - N/A   Clear
10:29 PM 59.0 °F 51.8 °F 77% 30.07 in 10.0 mi NNW 5.8 mph - N/A   Clear
10:49 PM 57.2 °F 51.8 °F 82% 30.07 in 10.0 mi North 5.8 mph - N/A   Clear
11:09 PM 57.2 °F 51.8 °F 82% 30.07 in 10.0 mi NNW 4.6 mph - N/A   Clear
11:29 PM 55.4 °F 51.8 °F 88% 30.08 in 10.0 mi NNW 3.5 mph - N/A   Clear
11:49 PM 53.6 °F 50.0 °F 88% 30.08 in 10.0 mi Calm Calm - N/A   Clear